Time,TemperatureF,DewpointF,PressureIn,WindDirection,WindDirectionDegrees,WindSpeedMPH,WindSpeedGustMPH,Humidity,HourlyPrecipIn,Conditions,Clouds,dailyrainin,SoftwareType,DateUTC
2013-08-13 00:01:00,59.0,58.0,30.05,SSE,157,0.0,2.0,98,0.00,,,0.00,Rainwise IP-100,2013-08-13 04:01:00,
2013-08-13 00:06:00,59.0,58.0,30.04,SSW,202,5.0,6.0,98,0.00,,,0.00,Rainwise IP-100,2013-08-13 04:06:00,
2013-08-13 00:11:00,59.0,57.0,30.04,SSW,202,5.0,6.0,95,0.00,,,0.00,Rainwise IP-100,2013-08-13 04:11:00,
2013-08-13 00:16:00,60.0,58.0,30.03,SW,225,4.0,6.0,95,0.00,,,0.00,Rainwise IP-100,2013-08-13 04:16:00,
2013-08-13 00:21:00,59.0,58.0,30.03,SW,225,0.0,4.0,97,0.00,,,0.00,Rainwise IP-100,2013-08-13 04:21:00,
2013-08-13 00:26:00,59.0,58.0,30.04,West,270,0.0,3.0,98,0.00,,,0.00,Rainwise IP-100,2013-08-13 04:26:00,
2013-08-13 00:31:00,59.0,58.0,30.04,West,270,0.0,1.0,98,0.00,,,0.00,Rainwise IP-100,2013-08-13 04:31:00,
2013-08-13 00:36:00,59.0,58.0,30.04,West,270,0.0,0.0,98,0.00,,,0.00,Rainwise IP-100,2013-08-13 04:36:00,
2013-08-13 00:41:00,59.0,58.0,30.04,South,180,8.0,8.0,98,0.00,,,0.00,Rainwise IP-100,2013-08-13 04:41:00,
2013-08-13 00:46:00,61.0,58.0,30.02,SSW,202,6.0,9.0,91,0.00,,,0.00,Rainwise IP-100,2013-08-13 04:46:00,
2013-08-13 00:51:00,61.0,57.0,30.02,SSW,202,6.0,9.0,89,0.00,,,0.00,Rainwise IP-100,2013-08-13 04:51:00,
2013-08-13 00:56:00,61.0,58.0,30.02,SSW,202,5.0,9.0,90,0.00,,,0.00,Rainwise IP-100,2013-08-13 04:56:00,
2013-08-13 01:01:00,61.0,59.0,30.02,SW,225,0.0,7.0,92,0.00,,,0.00,Rainwise IP-100,2013-08-13 05:01:00,
2013-08-13 01:06:00,60.0,57.0,30.02,SW,225,0.0,1.0,93,0.00,,,0.00,Rainwise IP-100,2013-08-13 05:06:00,
2013-08-13 01:11:00,60.0,58.0,30.02,SW,225,0.0,0.0,94,0.00,,,0.00,Rainwise IP-100,2013-08-13 05:11:00,
2013-08-13 01:16:00,60.0,58.0,30.02,SW,225,0.0,0.0,94,0.00,,,0.00,Rainwise IP-100,2013-08-13 05:16:00,
2013-08-13 01:21:00,59.0,57.0,30.02,SSW,202,3.0,0.0,96,0.00,,,0.00,Rainwise IP-100,2013-08-13 05:21:00,
2013-08-13 01:26:00,60.0,58.0,30.01,SSW,202,2.0,4.0,94,0.00,,,0.00,Rainwise IP-100,2013-08-13 05:26:00,
2013-08-13 01:31:00,60.0,57.0,30.01,SW,225,2.0,4.0,93,0.00,,,0.00,Rainwise IP-100,2013-08-13 05:31:00,
2013-08-13 01:36:00,60.0,57.0,30.01,SW,225,2.0,5.0,91,0.00,,,0.00,Rainwise IP-100,2013-08-13 05:36:00,
2013-08-13 01:41:00,61.0,58.0,30.01,SW,225,2.0,5.0,90,0.00,,,0.00,Rainwise IP-100,2013-08-13 05:41:00,
2013-08-13 01:46:00,61.0,57.0,30.01,SSE,157,5.0,6.0,89,0.00,,,0.00,Rainwise IP-100,2013-08-13 05:46:00,
2013-08-13 01:51:00,61.0,57.0,30.01,SE,135,5.0,7.0,89,0.00,,,0.00,Rainwise IP-100,2013-08-13 05:51:00,
2013-08-13 01:56:00,61.0,57.0,30.00,SSE,157,6.0,7.0,89,0.00,,,0.00,Rainwise IP-100,2013-08-13 05:56:00,
2013-08-13 02:01:00,61.0,58.0,30.00,SSE,157,3.0,7.0,91,0.00,,,0.00,Rainwise IP-100,2013-08-13 06:01:00,
2013-08-13 02:06:00,61.0,59.0,30.00,SSE,157,0.0,5.0,92,0.00,,,0.00,Rainwise IP-100,2013-08-13 06:06:00,
2013-08-13 02:11:00,60.0,58.0,30.00,SSE,157,0.0,0.0,95,0.00,,,0.00,Rainwise IP-100,2013-08-13 06:11:00,
2013-08-13 02:16:00,59.0,57.0,30.00,SSE,157,0.0,0.0,96,0.00,,,0.00,Rainwise IP-100,2013-08-13 06:16:00,
2013-08-13 02:21:00,59.0,58.0,30.00,SSE,157,0.0,0.0,98,0.00,,,0.00,Rainwise IP-100,2013-08-13 06:21:00,
2013-08-13 02:26:00,59.0,58.0,30.00,SSE,157,0.0,0.0,98,0.00,,,0.00,Rainwise IP-100,2013-08-13 06:26:00,
2013-08-13 02:31:00,59.0,58.0,30.00,SSE,157,0.0,0.0,98,0.00,,,0.00,Rainwise IP-100,2013-08-13 06:31:00,
2013-08-13 02:36:00,59.0,58.0,30.00,SSE,157,0.0,0.0,98,0.00,,,0.00,Rainwise IP-100,2013-08-13 06:36:00,
2013-08-13 02:41:00,59.0,58.0,30.00,South,180,3.0,3.0,98,0.00,,,0.00,Rainwise IP-100,2013-08-13 06:41:00,
2013-08-13 02:46:00,59.0,58.0,29.99,South,180,3.0,5.0,97,0.00,,,0.00,Rainwise IP-100,2013-08-13 06:46:00,
2013-08-13 02:51:00,60.0,59.0,29.99,SSW,202,0.0,5.0,98,0.00,,,0.00,Rainwise IP-100,2013-08-13 06:51:00,
2013-08-13 02:56:00,60.0,59.0,29.98,SSW,202,0.0,0.0,98,0.00,,,0.00,Rainwise IP-100,2013-08-13 06:56:00,
2013-08-13 03:01:00,60.0,59.0,29.98,West,270,1.0,3.0,98,0.00,,,0.00,Rainwise IP-100,2013-08-13 07:01:00,
2013-08-13 03:06:00,60.0,59.0,29.98,West,270,1.0,2.0,98,0.00,,,0.00,Rainwise IP-100,2013-08-13 07:06:00,
2013-08-13 03:11:00,59.0,58.0,29.98,West,270,0.0,2.0,98,0.00,,,0.00,Rainwise IP-100,2013-08-13 07:11:00,
2013-08-13 03:16:00,59.0,58.0,29.99,West,270,0.0,2.0,98,0.00,,,0.00,Rainwise IP-100,2013-08-13 07:16:00,
2013-08-13 03:21:00,59.0,58.0,29.99,West,270,1.0,1.0,98,0.00,,,0.00,Rainwise IP-100,2013-08-13 07:21:00,
2013-08-13 03:26:00,60.0,59.0,29.97,SSE,157,4.0,4.0,96,0.00,,,0.00,Rainwise IP-100,2013-08-13 07:26:00,
2013-08-13 03:31:00,60.0,57.0,29.97,SSE,157,1.0,5.0,92,0.00,,,0.00,Rainwise IP-100,2013-08-13 07:31:00,
2013-08-13 03:36:00,60.0,58.0,29.96,SSE,157,0.0,3.0,94,0.00,,,0.00,Rainwise IP-100,2013-08-13 07:36:00,
2013-08-13 03:41:00,60.0,59.0,29.96,SSE,157,0.0,0.0,96,0.00,,,0.00,Rainwise IP-100,2013-08-13 07:41:00,
2013-08-13 03:46:00,59.0,58.0,29.96,WNW,292,1.0,3.0,98,0.00,,,0.00,Rainwise IP-100,2013-08-13 07:46:00,
2013-08-13 03:51:00,59.0,58.0,29.96,WNW,292,0.0,2.0,98,0.00,,,0.00,Rainwise IP-100,2013-08-13 07:51:00,
2013-08-13 03:56:00,59.0,58.0,29.96,South,180,6.0,6.0,98,0.00,,,0.00,Rainwise IP-100,2013-08-13 07:56:00,
2013-08-13 04:01:00,60.0,58.0,29.96,South,180,5.0,6.0,94,0.00,,,0.00,Rainwise IP-100,2013-08-13 08:01:00,
2013-08-13 04:06:00,61.0,59.0,29.95,South,180,4.0,7.0,92,0.00,,,0.00,Rainwise IP-100,2013-08-13 08:06:00,
2013-08-13 04:11:00,60.0,58.0,29.95,WNW,292,0.0,4.0,94,0.00,,,0.00,Rainwise IP-100,2013-08-13 08:11:00,
2013-08-13 04:16:00,59.0,57.0,29.95,WNW,292,0.0,0.0,95,0.00,,,0.00,Rainwise IP-100,2013-08-13 08:16:00,
2013-08-13 04:21:00,58.0,57.0,29.95,WNW,292,0.0,0.0,97,0.00,,,0.00,Rainwise IP-100,2013-08-13 08:21:00,
2013-08-13 04:26:00,58.0,57.0,29.96,NW,315,0.0,3.0,98,0.00,,,0.00,Rainwise IP-100,2013-08-13 08:26:00,
2013-08-13 04:31:00,57.0,56.0,29.96,NW,315,0.0,1.0,98,0.00,,,0.00,Rainwise IP-100,2013-08-13 08:31:00,
2013-08-13 04:36:00,57.0,56.0,29.96,East,90,2.0,0.0,98,0.00,,,0.00,Rainwise IP-100,2013-08-13 08:36:00,
2013-08-13 04:41:00,56.0,55.0,29.96,East,90,0.0,4.0,97,0.00,,,0.00,Rainwise IP-100,2013-08-13 08:41:00,
2013-08-13 04:46:00,56.0,55.0,29.96,East,90,0.0,3.0,97,0.00,,,0.00,Rainwise IP-100,2013-08-13 08:46:00,
2013-08-13 04:51:00,56.0,55.0,29.96,East,90,0.0,2.0,97,0.00,,,0.00,Rainwise IP-100,2013-08-13 08:51:00,
2013-08-13 04:56:00,56.0,55.0,29.96,East,90,0.0,0.0,97,0.00,,,0.00,Rainwise IP-100,2013-08-13 08:56:00,
2013-08-13 05:01:00,56.0,55.0,29.96,East,90,0.0,0.0,97,0.00,,,0.00,Rainwise IP-100,2013-08-13 09:01:00,
2013-08-13 05:06:00,56.0,55.0,29.96,East,90,3.0,3.0,97,0.00,,,0.00,Rainwise IP-100,2013-08-13 09:06:00,
2013-08-13 05:11:00,56.0,55.0,29.96,East,90,2.0,4.0,97,0.00,,,0.00,Rainwise IP-100,2013-08-13 09:11:00,
2013-08-13 05:16:00,56.0,55.0,29.96,East,90,0.0,3.0,97,0.00,,,0.00,Rainwise IP-100,2013-08-13 09:16:00,
2013-08-13 05:21:00,56.0,55.0,29.96,East,90,0.0,0.0,97,0.00,,,0.00,Rainwise IP-100,2013-08-13 09:21:00,
2013-08-13 05:26:00,56.0,55.0,29.96,East,90,1.0,3.0,97,0.00,,,0.00,Rainwise IP-100,2013-08-13 09:26:00,
2013-08-13 05:31:00,56.0,55.0,29.96,East,90,2.0,3.0,97,0.00,,,0.00,Rainwise IP-100,2013-08-13 09:31:00,
2013-08-13 05:36:00,56.0,55.0,29.95,East,90,0.0,3.0,97,0.00,,,0.00,Rainwise IP-100,2013-08-13 09:36:00,
2013-08-13 05:41:00,56.0,55.0,29.95,East,90,0.0,0.0,97,0.00,,,0.00,Rainwise IP-100,2013-08-13 09:41:00,
2013-08-13 05:46:00,56.0,55.0,29.95,East,90,1.0,2.0,97,0.00,,,0.00,Rainwise IP-100,2013-08-13 09:46:00,
2013-08-13 05:51:00,56.0,55.0,29.95,East,90,0.0,2.0,97,0.00,,,0.00,Rainwise IP-100,2013-08-13 09:51:00,
2013-08-13 05:56:00,56.0,55.0,29.95,East,90,1.0,2.0,97,0.00,,,0.00,Rainwise IP-100,2013-08-13 09:56:00,
2013-08-13 06:01:00,56.0,55.0,29.95,East,90,0.0,2.0,97,0.00,,,0.00,Rainwise IP-100,2013-08-13 10:01:00,
2013-08-13 06:06:00,56.0,55.0,29.95,East,90,2.0,2.0,97,0.00,,,0.00,Rainwise IP-100,2013-08-13 10:06:00,
2013-08-13 06:11:00,56.0,55.0,29.95,East,90,0.0,2.0,97,0.00,,,0.00,Rainwise IP-100,2013-08-13 10:11:00,
2013-08-13 06:16:00,56.0,55.0,29.95,East,90,4.0,4.0,97,0.00,,,0.00,Rainwise IP-100,2013-08-13 10:16:00,
2013-08-13 06:21:00,56.0,55.0,29.95,East,90,0.0,4.0,97,0.00,,,0.00,Rainwise IP-100,2013-08-13 10:21:00,
2013-08-13 06:26:00,56.0,55.0,29.95,East,90,1.0,2.0,97,0.00,,,0.00,Rainwise IP-100,2013-08-13 10:26:00,
2013-08-13 06:31:00,56.0,55.0,29.95,East,90,0.0,3.0,97,0.00,,,0.00,Rainwise IP-100,2013-08-13 10:31:00,
2013-08-13 06:36:00,56.0,55.0,29.95,East,90,1.0,2.0,97,0.00,,,0.00,Rainwise IP-100,2013-08-13 10:36:00,
2013-08-13 06:41:00,56.0,55.0,29.95,East,90,0.0,2.0,97,0.00,,,0.00,Rainwise IP-100,2013-08-13 10:41:00,
2013-08-13 06:46:00,56.0,55.0,29.95,East,90,0.0,1.0,97,0.00,,,0.00,Rainwise IP-100,2013-08-13 10:46:00,
2013-08-13 06:51:00,56.0,55.0,29.95,East,90,1.0,2.0,97,0.00,,,0.00,Rainwise IP-100,2013-08-13 10:51:00,
2013-08-13 06:56:00,56.0,55.0,29.94,East,90,2.0,3.0,97,0.00,,,0.00,Rainwise IP-100,2013-08-13 10:56:00,
2013-08-13 07:01:00,56.0,55.0,29.94,East,90,0.0,3.0,97,0.00,,,0.00,Rainwise IP-100,2013-08-13 11:01:00,
2013-08-13 07:06:00,57.0,56.0,29.94,NNW,337,2.0,4.0,98,0.00,,,0.00,Rainwise IP-100,2013-08-13 11:06:00,
2013-08-13 07:11:00,57.0,56.0,29.94,NNW,337,0.0,3.0,98,0.00,,,0.00,Rainwise IP-100,2013-08-13 11:11:00,
2013-08-13 07:16:00,57.0,56.0,29.94,NNW,337,2.0,0.0,98,0.00,,,0.00,Rainwise IP-100,2013-08-13 11:16:00,
2013-08-13 07:21:00,57.0,56.0,29.94,NNW,337,0.0,2.0,98,0.00,,,0.00,Rainwise IP-100,2013-08-13 11:21:00,
2013-08-13 07:26:00,57.0,56.0,29.94,NNW,337,0.0,0.0,98,0.00,,,0.00,Rainwise IP-100,2013-08-13 11:26:00,
2013-08-13 07:31:00,57.0,56.0,29.94,NNW,337,0.0,0.0,98,0.00,,,0.00,Rainwise IP-100,2013-08-13 11:31:00,
2013-08-13 07:36:00,57.0,56.0,29.94,NW,315,2.0,3.0,98,0.00,,,0.00,Rainwise IP-100,2013-08-13 11:36:00,
2013-08-13 07:41:00,57.0,56.0,29.94,NW,315,0.0,2.0,98,0.00,,,0.00,Rainwise IP-100,2013-08-13 11:41:00,
2013-08-13 07:46:00,57.0,56.0,29.95,WNW,292,2.0,3.0,98,0.00,,,0.00,Rainwise IP-100,2013-08-13 11:46:00,
2013-08-13 07:51:00,57.0,56.0,29.95,NW,315,2.0,4.0,98,0.00,,,0.00,Rainwise IP-100,2013-08-13 11:51:00,
2013-08-13 07:56:00,57.0,56.0,29.96,South,180,2.0,2.0,98,0.00,,,0.00,Rainwise IP-100,2013-08-13 11:56:00,
2013-08-13 08:01:00,58.0,57.0,29.96,SSE,157,4.0,5.0,98,0.00,,,0.00,Rainwise IP-100,2013-08-13 12:01:00,
2013-08-13 08:06:00,58.0,57.0,29.94,SSW,202,6.0,9.0,98,0.00,,,0.00,Rainwise IP-100,2013-08-13 12:06:00,
2013-08-13 08:11:00,59.0,58.0,29.94,SSE,157,8.0,13.0,98,0.00,,,0.00,Rainwise IP-100,2013-08-13 12:11:00,
2013-08-13 08:16:00,60.0,59.0,29.93,SSW,202,9.0,13.0,98,0.00,,,0.00,Rainwise IP-100,2013-08-13 12:16:00,
2013-08-13 08:21:00,61.0,60.0,29.93,SW,225,10.0,15.0,98,0.06,,,0.01,Rainwise IP-100,2013-08-13 12:21:00,
2013-08-13 08:26:00,61.0,60.0,29.91,SSW,202,12.0,15.0,98,0.06,,,0.01,Rainwise IP-100,2013-08-13 12:26:00,
2013-08-13 08:31:00,62.0,61.0,29.91,SW,225,12.0,15.0,98,0.00,,,0.01,Rainwise IP-100,2013-08-13 12:31:00,
2013-08-13 08:36:00,62.0,61.0,29.91,SW,225,7.0,13.0,98,0.00,,,0.01,Rainwise IP-100,2013-08-13 12:36:00,
2013-08-13 08:41:00,62.0,61.0,29.91,SW,225,9.0,10.0,98,0.00,,,0.01,Rainwise IP-100,2013-08-13 12:41:00,
2013-08-13 08:46:00,62.0,61.0,29.91,SW,225,3.0,10.0,98,0.00,,,0.01,Rainwise IP-100,2013-08-13 12:46:00,
2013-08-13 08:51:00,62.0,61.0,29.91,WSW,247,3.0,7.0,98,0.00,,,0.01,Rainwise IP-100,2013-08-13 12:51:00,
2013-08-13 08:56:00,62.0,61.0,29.91,WSW,247,6.0,8.0,98,0.00,,,0.01,Rainwise IP-100,2013-08-13 12:56:00,
2013-08-13 09:01:00,62.0,61.0,29.91,SSW,202,3.0,11.0,98,0.00,,,0.01,Rainwise IP-100,2013-08-13 13:01:00,
2013-08-13 09:06:00,62.0,61.0,29.91,South,180,6.0,10.0,98,0.00,,,0.01,Rainwise IP-100,2013-08-13 13:06:00,
2013-08-13 09:11:00,62.0,61.0,29.91,South,180,7.0,9.0,98,0.00,,,0.01,Rainwise IP-100,2013-08-13 13:11:00,
2013-08-13 09:16:00,63.0,62.0,29.90,SSW,202,9.0,13.0,98,0.00,,,0.01,Rainwise IP-100,2013-08-13 13:16:00,
2013-08-13 09:21:00,63.0,62.0,29.90,SSW,202,7.0,10.0,98,0.00,,,0.01,Rainwise IP-100,2013-08-13 13:21:00,
2013-08-13 09:26:00,63.0,62.0,29.90,SW,225,3.0,8.0,98,0.00,,,0.01,Rainwise IP-100,2013-08-13 13:26:00,
2013-08-13 09:31:00,63.0,62.0,29.90,SW,225,7.0,7.0,98,0.00,,,0.01,Rainwise IP-100,2013-08-13 13:31:00,
2013-08-13 09:36:00,63.0,62.0,29.90,SW,225,4.0,9.0,98,0.00,,,0.01,Rainwise IP-100,2013-08-13 13:36:00,
2013-08-13 09:41:00,63.0,62.0,29.90,SW,225,6.0,10.0,98,0.00,,,0.01,Rainwise IP-100,2013-08-13 13:41:00,
2013-08-13 09:46:00,63.0,62.0,29.91,SW,225,5.0,7.0,98,0.00,,,0.01,Rainwise IP-100,2013-08-13 13:46:00,
2013-08-13 09:51:00,63.0,62.0,29.91,WSW,247,6.0,8.0,98,0.00,,,0.01,Rainwise IP-100,2013-08-13 13:51:00,
2013-08-13 09:56:00,63.0,62.0,29.91,SW,225,7.0,7.0,98,0.00,,,0.01,Rainwise IP-100,2013-08-13 13:56:00,
2013-08-13 10:01:00,63.0,62.0,29.91,SSW,202,7.0,7.0,98,0.00,,,0.01,Rainwise IP-100,2013-08-13 14:01:00,
2013-08-13 10:06:00,63.0,62.0,29.92,SSW,202,7.0,10.0,98,0.00,,,0.02,Rainwise IP-100,2013-08-13 14:06:00,
2013-08-13 10:11:00,63.0,62.0,29.92,SSW,202,11.0,11.0,98,0.06,,,0.02,Rainwise IP-100,2013-08-13 14:11:00,
2013-08-13 10:16:00,63.0,62.0,29.92,SW,225,7.0,11.0,98,0.06,,,0.02,Rainwise IP-100,2013-08-13 14:16:00,
2013-08-13 10:21:00,63.0,62.0,29.92,SSW,202,9.0,9.0,98,0.06,,,0.03,Rainwise IP-100,2013-08-13 14:21:00,
2013-08-13 10:26:00,63.0,62.0,29.91,SSE,157,6.0,29.0,98,0.06,,,0.03,Rainwise IP-100,2013-08-13 14:26:00,
2013-08-13 10:31:00,63.0,62.0,29.91,South,180,5.0,9.0,98,0.00,,,0.03,Rainwise IP-100,2013-08-13 14:31:00,
2013-08-13 10:36:00,63.0,62.0,29.92,SW,225,4.0,9.0,98,0.06,,,0.04,Rainwise IP-100,2013-08-13 14:36:00,
2013-08-13 10:41:00,63.0,62.0,29.92,SW,225,6.0,7.0,98,0.06,,,0.04,Rainwise IP-100,2013-08-13 14:41:00,
2013-08-13 10:46:00,63.0,62.0,29.91,SW,225,6.0,8.0,98,0.00,,,0.04,Rainwise IP-100,2013-08-13 14:46:00,
2013-08-13 10:51:00,63.0,62.0,29.91,SW,225,4.0,9.0,98,0.00,,,0.04,Rainwise IP-100,2013-08-13 14:51:00,
2013-08-13 10:56:00,63.0,62.0,29.91,SW,225,4.0,9.0,98,0.06,,,0.05,Rainwise IP-100,2013-08-13 14:56:00,
2013-08-13 11:01:00,63.0,62.0,29.91,SW,225,7.0,10.0,98,0.06,,,0.05,Rainwise IP-100,2013-08-13 15:01:00,
2013-08-13 11:06:00,63.0,62.0,29.91,SW,225,7.0,9.0,98,0.00,,,0.05,Rainwise IP-100,2013-08-13 15:06:00,
2013-08-13 11:11:00,63.0,62.0,29.91,SSW,202,5.0,8.0,98,0.06,,,0.06,Rainwise IP-100,2013-08-13 15:11:00,
2013-08-13 11:16:00,63.0,62.0,29.90,SW,225,4.0,9.0,98,0.06,,,0.06,Rainwise IP-100,2013-08-13 15:16:00,
2013-08-13 11:21:00,63.0,62.0,29.90,SW,225,7.0,7.0,98,0.00,,,0.06,Rainwise IP-100,2013-08-13 15:21:00,
2013-08-13 11:26:00,63.0,62.0,29.90,SW,225,5.0,9.0,98,0.00,,,0.06,Rainwise IP-100,2013-08-13 15:26:00,
2013-08-13 11:31:00,63.0,62.0,29.90,SSW,202,6.0,10.0,98,0.00,,,0.06,Rainwise IP-100,2013-08-13 15:31:00,
2013-08-13 11:36:00,63.0,62.0,29.90,South,180,7.0,9.0,98,0.00,,,0.06,Rainwise IP-100,2013-08-13 15:36:00,
2013-08-13 11:41:00,63.0,62.0,29.90,SSW,202,6.0,8.0,96,0.00,,,0.06,Rainwise IP-100,2013-08-13 15:41:00,
2013-08-13 11:46:00,63.0,62.0,29.89,WSW,247,6.0,8.0,96,0.00,,,0.06,Rainwise IP-100,2013-08-13 15:46:00,
2013-08-13 11:51:00,63.0,62.0,29.89,South,180,5.0,8.0,97,0.00,,,0.06,Rainwise IP-100,2013-08-13 15:51:00,
2013-08-13 11:56:00,63.0,62.0,29.89,South,180,7.0,8.0,96,0.00,,,0.06,Rainwise IP-100,2013-08-13 15:56:00,
2013-08-13 12:01:00,63.0,62.0,29.89,SSW,202,6.0,8.0,96,0.00,,,0.06,Rainwise IP-100,2013-08-13 16:01:00,
2013-08-13 12:06:00,64.0,63.0,29.89,SW,225,0.0,7.0,97,0.00,,,0.06,Rainwise IP-100,2013-08-13 16:06:00,
2013-08-13 12:11:00,64.0,63.0,29.89,SW,225,2.0,5.0,97,0.00,,,0.06,Rainwise IP-100,2013-08-13 16:11:00,
2013-08-13 12:16:00,64.0,63.0,29.89,West,270,2.0,6.0,96,0.00,,,0.06,Rainwise IP-100,2013-08-13 16:16:00,
2013-08-13 12:21:00,64.0,62.0,29.89,SW,225,2.0,6.0,94,0.00,,,0.06,Rainwise IP-100,2013-08-13 16:21:00,
2013-08-13 12:26:00,64.0,63.0,29.89,West,270,1.0,6.0,96,0.00,,,0.06,Rainwise IP-100,2013-08-13 16:26:00,
2013-08-13 12:31:00,64.0,62.0,29.89,NW,315,3.0,6.0,95,0.00,,,0.06,Rainwise IP-100,2013-08-13 16:31:00,
2013-08-13 12:36:00,64.0,63.0,29.88,NW,315,0.0,5.0,96,0.00,,,0.06,Rainwise IP-100,2013-08-13 16:36:00,
2013-08-13 12:41:00,65.0,64.0,29.88,WNW,292,0.0,0.0,97,0.00,,,0.06,Rainwise IP-100,2013-08-13 16:41:00,
2013-08-13 12:46:00,65.0,64.0,29.88,SW,225,0.0,2.0,97,0.00,,,0.06,Rainwise IP-100,2013-08-13 16:46:00,
2013-08-13 12:51:00,66.0,65.0,29.88,NW,315,2.0,2.0,98,0.00,,,0.06,Rainwise IP-100,2013-08-13 16:51:00,
2013-08-13 12:56:00,66.0,65.0,29.87,NW,315,0.0,4.0,99,0.00,,,0.06,Rainwise IP-100,2013-08-13 16:56:00,
2013-08-13 13:01:00,67.0,66.0,29.87,North,360,2.0,4.0,97,0.00,,,0.06,Rainwise IP-100,2013-08-13 17:01:00,
2013-08-13 13:06:00,68.0,65.0,29.86,WSW,247,3.0,6.0,91,0.00,,,0.06,Rainwise IP-100,2013-08-13 17:06:00,
2013-08-13 13:12:00,67.0,62.0,29.86,SSW,202,6.0,12.0,85,0.00,,,0.06,Rainwise IP-100,2013-08-13 17:12:00,
2013-08-13 13:17:00,68.0,64.0,29.86,WSW,247,2.0,10.0,87,0.00,,,0.06,Rainwise IP-100,2013-08-13 17:17:00,
2013-08-13 13:22:00,68.0,63.0,29.86,South,180,8.0,12.0,85,0.00,,,0.06,Rainwise IP-100,2013-08-13 17:22:00,
2013-08-13 13:27:00,69.0,63.0,29.86,South,180,7.0,12.0,82,0.00,,,0.06,Rainwise IP-100,2013-08-13 17:27:00,
2013-08-13 13:32:00,69.0,64.0,29.86,SSW,202,4.0,12.0,84,0.00,,,0.06,Rainwise IP-100,2013-08-13 17:32:00,
2013-08-13 13:37:00,68.0,61.0,29.86,WSW,247,7.0,14.0,80,0.00,,,0.06,Rainwise IP-100,2013-08-13 17:37:00,
2013-08-13 13:42:00,68.0,61.0,29.86,SW,225,9.0,14.0,79,0.00,,,0.06,Rainwise IP-100,2013-08-13 17:42:00,
2013-08-13 13:47:00,68.0,61.0,29.86,SSW,202,12.0,13.0,80,0.00,,,0.06,Rainwise IP-100,2013-08-13 17:47:00,
2013-08-13 13:52:00,68.0,61.0,29.86,South,180,6.0,14.0,80,0.00,,,0.06,Rainwise IP-100,2013-08-13 17:52:00,
2013-08-13 13:57:00,70.0,62.0,29.85,SSW,202,5.0,12.0,76,0.00,,,0.06,Rainwise IP-100,2013-08-13 17:57:00,
2013-08-13 14:02:00,70.0,62.0,29.85,South,180,4.0,12.0,77,0.00,,,0.06,Rainwise IP-100,2013-08-13 18:02:00,
2013-08-13 14:07:00,70.0,63.0,29.85,SSW,202,7.0,10.0,78,0.00,,,0.06,Rainwise IP-100,2013-08-13 18:07:00,
2013-08-13 14:12:00,69.0,61.0,29.85,WSW,247,6.0,12.0,77,0.00,,,0.06,Rainwise IP-100,2013-08-13 18:12:00,
2013-08-13 14:17:00,69.0,61.0,29.85,SW,225,6.0,21.0,77,0.00,,,0.06,Rainwise IP-100,2013-08-13 18:17:00,
2013-08-13 14:22:00,70.0,62.0,29.85,SW,225,9.0,9.0,76,0.00,,,0.06,Rainwise IP-100,2013-08-13 18:22:00,
2013-08-13 14:27:00,69.0,61.0,29.85,SW,225,4.0,11.0,78,0.00,,,0.06,Rainwise IP-100,2013-08-13 18:27:00,
2013-08-13 14:32:00,70.0,62.0,29.85,SW,225,2.0,8.0,77,0.00,,,0.06,Rainwise IP-100,2013-08-13 18:32:00,
2013-08-13 14:37:00,70.0,61.0,29.83,SW,225,8.0,8.0,74,0.00,,,0.06,Rainwise IP-100,2013-08-13 18:37:00,
2013-08-13 14:42:00,70.0,62.0,29.83,SW,225,4.0,9.0,75,0.00,,,0.06,Rainwise IP-100,2013-08-13 18:42:00,
2013-08-13 14:47:00,70.0,61.0,29.84,SW,225,5.0,12.0,74,0.00,,,0.06,Rainwise IP-100,2013-08-13 18:47:00,
2013-08-13 14:52:00,70.0,63.0,29.84,West,270,4.0,7.0,78,0.00,,,0.06,Rainwise IP-100,2013-08-13 18:52:00,
2013-08-13 14:57:00,71.0,63.0,29.83,SW,225,3.0,8.0,78,0.00,,,0.06,Rainwise IP-100,2013-08-13 18:57:00,
2013-08-13 15:02:00,70.0,62.0,29.83,SW,225,6.0,9.0,75,0.00,,,0.06,Rainwise IP-100,2013-08-13 19:02:00,
2013-08-13 15:07:00,70.0,61.0,29.82,WSW,247,7.0,10.0,74,0.00,,,0.06,Rainwise IP-100,2013-08-13 19:07:00,
2013-08-13 15:12:00,70.0,62.0,29.82,WSW,247,4.0,12.0,77,0.00,,,0.06,Rainwise IP-100,2013-08-13 19:12:00,
2013-08-13 15:17:00,70.0,62.0,29.82,WSW,247,4.0,8.0,75,0.00,,,0.06,Rainwise IP-100,2013-08-13 19:17:00,
2013-08-13 15:22:00,70.0,63.0,29.82,WSW,247,6.0,10.0,78,0.00,,,0.06,Rainwise IP-100,2013-08-13 19:22:00,
2013-08-13 15:27:00,70.0,62.0,29.82,SW,225,2.0,9.0,77,0.00,,,0.06,Rainwise IP-100,2013-08-13 19:27:00,
2013-08-13 15:32:00,71.0,63.0,29.82,WSW,247,4.0,6.0,76,0.00,,,0.06,Rainwise IP-100,2013-08-13 19:32:00,
2013-08-13 15:37:00,70.0,62.0,29.82,West,270,2.0,6.0,77,0.00,,,0.06,Rainwise IP-100,2013-08-13 19:37:00,
2013-08-13 15:42:00,70.0,62.0,29.82,SW,225,4.0,9.0,75,0.00,,,0.06,Rainwise IP-100,2013-08-13 19:42:00,
2013-08-13 15:47:00,70.0,62.0,29.82,SW,225,7.0,13.0,77,0.00,,,0.06,Rainwise IP-100,2013-08-13 19:47:00,
2013-08-13 15:52:00,70.0,61.0,29.82,SW,225,7.0,11.0,74,0.00,,,0.06,Rainwise IP-100,2013-08-13 19:52:00,
2013-08-13 15:57:00,70.0,61.0,29.82,SW,225,2.0,14.0,74,0.00,,,0.06,Rainwise IP-100,2013-08-13 19:57:00,
2013-08-13 16:02:00,71.0,61.0,29.82,SW,225,6.0,15.0,73,0.00,,,0.06,Rainwise IP-100,2013-08-13 20:02:00,
2013-08-13 16:07:00,71.0,61.0,29.81,SW,225,11.0,14.0,71,0.00,,,0.06,Rainwise IP-100,2013-08-13 20:07:00,
2013-08-13 16:12:00,72.0,61.0,29.81,SSW,202,5.0,12.0,69,0.00,,,0.06,Rainwise IP-100,2013-08-13 20:12:00,
2013-08-13 16:17:00,72.0,61.0,29.80,SW,225,11.0,12.0,68,0.00,,,0.06,Rainwise IP-100,2013-08-13 20:17:00,
2013-08-13 16:22:00,71.0,61.0,29.80,SW,225,7.0,13.0,71,0.00,,,0.06,Rainwise IP-100,2013-08-13 20:22:00,
2013-08-13 16:27:00,71.0,61.0,29.81,SW,225,4.0,10.0,72,0.00,,,0.06,Rainwise IP-100,2013-08-13 20:27:00,
2013-08-13 16:32:00,71.0,61.0,29.81,SW,225,2.0,9.0,73,0.00,,,0.06,Rainwise IP-100,2013-08-13 20:32:00,
2013-08-13 16:37:00,71.0,61.0,29.81,SW,225,4.0,10.0,72,0.00,,,0.06,Rainwise IP-100,2013-08-13 20:37:00,
2013-08-13 16:42:00,70.0,61.0,29.81,SW,225,6.0,10.0,73,0.00,,,0.06,Rainwise IP-100,2013-08-13 20:42:00,
2013-08-13 16:47:00,70.0,62.0,29.82,SW,225,2.0,10.0,76,0.00,,,0.06,Rainwise IP-100,2013-08-13 20:47:00,
2013-08-13 16:52:00,70.0,62.0,29.82,SW,225,6.0,9.0,77,0.00,,,0.06,Rainwise IP-100,2013-08-13 20:52:00,
2013-08-13 16:57:00,69.0,61.0,29.82,SW,225,7.0,9.0,78,0.00,,,0.06,Rainwise IP-100,2013-08-13 20:57:00,
2013-08-13 17:02:00,69.0,61.0,29.82,SSW,202,3.0,14.0,78,0.00,,,0.06,Rainwise IP-100,2013-08-13 21:02:00,
2013-08-13 17:07:00,69.0,61.0,29.82,SW,225,7.0,12.0,77,0.00,,,0.06,Rainwise IP-100,2013-08-13 21:07:00,
2013-08-13 17:12:00,68.0,60.0,29.82,SW,225,6.0,9.0,77,0.00,,,0.06,Rainwise IP-100,2013-08-13 21:12:00,
2013-08-13 17:17:00,68.0,60.0,29.82,WSW,247,6.0,12.0,77,0.00,,,0.06,Rainwise IP-100,2013-08-13 21:17:00,
2013-08-13 17:22:00,68.0,60.0,29.82,SW,225,7.0,12.0,77,0.00,,,0.06,Rainwise IP-100,2013-08-13 21:22:00,
2013-08-13 17:27:00,68.0,60.0,29.82,SW,225,7.0,12.0,77,0.00,,,0.06,Rainwise IP-100,2013-08-13 21:27:00,
2013-08-13 17:32:00,68.0,60.0,29.82,NW,315,7.0,11.0,77,0.00,,,0.06,Rainwise IP-100,2013-08-13 21:32:00,
2013-08-13 17:37:00,68.0,61.0,29.82,WSW,247,7.0,9.0,79,0.00,,,0.06,Rainwise IP-100,2013-08-13 21:37:00,
2013-08-13 17:42:00,67.0,61.0,29.82,WSW,247,4.0,9.0,80,0.00,,,0.06,Rainwise IP-100,2013-08-13 21:42:00,
2013-08-13 17:47:00,67.0,61.0,29.82,WSW,247,2.0,6.0,81,0.00,,,0.06,Rainwise IP-100,2013-08-13 21:47:00,
2013-08-13 17:52:00,67.0,61.0,29.82,SW,225,3.0,6.0,81,0.00,,,0.06,Rainwise IP-100,2013-08-13 21:52:00,
2013-08-13 17:57:00,67.0,61.0,29.82,WSW,247,5.0,11.0,82,0.00,,,0.06,Rainwise IP-100,2013-08-13 21:57:00,
2013-08-13 18:02:00,67.0,62.0,29.82,SW,225,5.0,7.0,83,0.00,,,0.06,Rainwise IP-100,2013-08-13 22:02:00,
2013-08-13 18:07:00,67.0,61.0,29.82,WSW,247,3.0,7.0,82,0.00,,,0.06,Rainwise IP-100,2013-08-13 22:07:00,
2013-08-13 18:12:00,67.0,61.0,29.82,SW,225,7.0,10.0,82,0.00,,,0.06,Rainwise IP-100,2013-08-13 22:12:00,
2013-08-13 18:17:00,67.0,61.0,29.82,SW,225,3.0,7.0,82,0.00,,,0.06,Rainwise IP-100,2013-08-13 22:17:00,
2013-08-13 18:22:00,67.0,61.0,29.82,SW,225,3.0,7.0,82,0.00,,,0.06,Rainwise IP-100,2013-08-13 22:22:00,
2013-08-13 18:27:00,66.0,60.0,29.82,South,180,5.0,6.0,81,0.00,,,0.06,Rainwise IP-100,2013-08-13 22:27:00,
2013-08-13 18:32:00,66.0,60.0,29.82,South,180,3.0,5.0,82,0.00,,,0.06,Rainwise IP-100,2013-08-13 22:32:00,
2013-08-13 18:37:00,66.0,60.0,29.82,SSW,202,4.0,8.0,82,0.00,,,0.06,Rainwise IP-100,2013-08-13 22:37:00,
2013-08-13 18:42:00,66.0,61.0,29.82,SW,225,6.0,9.0,86,0.00,,,0.06,Rainwise IP-100,2013-08-13 22:42:00,
2013-08-13 18:47:00,66.0,62.0,29.82,SW,225,2.0,7.0,88,0.00,,,0.06,Rainwise IP-100,2013-08-13 22:47:00,
2013-08-13 18:52:00,65.0,62.0,29.82,SW,225,6.0,10.0,90,0.00,,,0.06,Rainwise IP-100,2013-08-13 22:52:00,
2013-08-13 18:57:00,65.0,62.0,29.82,SW,225,7.0,10.0,91,0.00,,,0.06,Rainwise IP-100,2013-08-13 22:57:00,
2013-08-13 19:02:00,65.0,63.0,29.82,SSW,202,6.0,9.0,93,0.06,,,0.07,Rainwise IP-100,2013-08-13 23:02:00,
2013-08-13 19:07:00,64.0,62.0,29.81,SSW,202,7.0,9.0,94,0.12,,,0.08,Rainwise IP-100,2013-08-13 23:07:00,
2013-08-13 19:12:00,64.0,62.0,29.81,SSW,202,7.0,8.0,95,0.06,,,0.08,Rainwise IP-100,2013-08-13 23:12:00,
2013-08-13 19:17:00,64.0,63.0,29.80,SW,225,3.0,7.0,96,0.00,,,0.08,Rainwise IP-100,2013-08-13 23:17:00,
2013-08-13 19:22:00,64.0,63.0,29.80,SW,225,5.0,5.0,98,0.00,,,0.08,Rainwise IP-100,2013-08-13 23:22:00,
2013-08-13 19:27:00,64.0,63.0,29.80,SW,225,4.0,6.0,98,0.00,,,0.08,Rainwise IP-100,2013-08-13 23:27:00,
2013-08-13 19:32:00,64.0,63.0,29.80,SW,225,4.0,6.0,98,0.00,,,0.08,Rainwise IP-100,2013-08-13 23:32:00,
2013-08-13 19:37:00,64.0,63.0,29.81,South,180,6.0,6.0,98,0.00,,,0.08,Rainwise IP-100,2013-08-13 23:37:00,
2013-08-13 19:42:00,64.0,63.0,29.81,South,180,7.0,7.0,97,0.00,,,0.08,Rainwise IP-100,2013-08-13 23:42:00,
2013-08-13 19:47:00,64.0,63.0,29.81,South,180,3.0,7.0,97,0.00,,,0.08,Rainwise IP-100,2013-08-13 23:47:00,
2013-08-13 19:52:00,64.0,63.0,29.81,South,180,8.0,8.0,97,0.00,,,0.08,Rainwise IP-100,2013-08-13 23:52:00,
2013-08-13 19:57:00,64.0,63.0,29.81,SSE,157,3.0,9.0,96,0.00,,,0.08,Rainwise IP-100,2013-08-13 23:57:00,
2013-08-13 20:02:00,64.0,63.0,29.81,South,180,4.0,7.0,96,0.00,,,0.08,Rainwise IP-100,2013-08-14 00:02:00,
2013-08-13 20:07:00,64.0,62.0,29.80,SSE,157,5.0,7.0,95,0.00,,,0.08,Rainwise IP-100,2013-08-14 00:07:00,
2013-08-13 20:12:00,64.0,63.0,29.80,SW,225,4.0,7.0,96,0.00,,,0.08,Rainwise IP-100,2013-08-14 00:12:00,
2013-08-13 20:17:00,63.0,62.0,29.80,SSW,202,5.0,6.0,97,0.00,,,0.08,Rainwise IP-100,2013-08-14 00:17:00,
2013-08-13 20:22:00,63.0,62.0,29.80,South,180,5.0,6.0,97,0.00,,,0.08,Rainwise IP-100,2013-08-14 00:22:00,
2013-08-13 20:27:00,63.0,61.0,29.80,South,180,2.0,7.0,95,0.00,,,0.08,Rainwise IP-100,2013-08-14 00:27:00,
2013-08-13 20:32:00,63.0,61.0,29.80,SSE,157,3.0,6.0,95,0.00,,,0.08,Rainwise IP-100,2013-08-14 00:32:00,
2013-08-13 20:37:00,63.0,61.0,29.81,South,180,5.0,6.0,95,0.00,,,0.08,Rainwise IP-100,2013-08-14 00:37:00,
2013-08-13 20:42:00,63.0,61.0,29.81,South,180,5.0,6.0,95,0.00,,,0.08,Rainwise IP-100,2013-08-14 00:42:00,
2013-08-13 20:47:00,63.0,61.0,29.81,South,180,5.0,6.0,95,0.00,,,0.08,Rainwise IP-100,2013-08-14 00:47:00,
2013-08-13 20:52:00,63.0,62.0,29.81,SSE,157,6.0,6.0,96,0.00,,,0.08,Rainwise IP-100,2013-08-14 00:52:00,
2013-08-13 20:57:00,63.0,62.0,29.82,South,180,4.0,7.0,96,0.00,,,0.08,Rainwise IP-100,2013-08-14 00:57:00,
2013-08-13 21:02:00,63.0,62.0,29.82,SSW,202,7.0,7.0,96,0.00,,,0.08,Rainwise IP-100,2013-08-14 01:02:00,
2013-08-13 21:07:00,63.0,61.0,29.82,SSE,157,4.0,60.0,95,0.00,,,0.08,Rainwise IP-100,2013-08-14 01:07:00,
2013-08-13 21:12:00,63.0,62.0,29.82,SSE,157,4.0,6.0,96,0.00,,,0.08,Rainwise IP-100,2013-08-14 01:12:00,
2013-08-13 21:17:00,64.0,62.0,29.81,SE,135,6.0,8.0,93,0.00,,,0.08,Rainwise IP-100,2013-08-14 01:17:00,
2013-08-13 21:22:00,64.0,62.0,29.81,South,180,7.0,7.0,94,0.00,,,0.08,Rainwise IP-100,2013-08-14 01:22:00,
2013-08-13 21:27:00,63.0,61.0,29.81,SSW,202,2.0,8.0,95,0.00,,,0.08,Rainwise IP-100,2013-08-14 01:27:00,
2013-08-13 21:32:00,63.0,62.0,29.81,WNW,292,3.0,6.0,96,0.00,,,0.08,Rainwise IP-100,2013-08-14 01:32:00,
2013-08-13 21:37:00,62.0,61.0,29.82,South,180,0.0,6.0,98,0.00,,,0.08,Rainwise IP-100,2013-08-14 01:37:00,
2013-08-13 21:42:00,62.0,61.0,29.82,NW,315,1.0,6.0,98,0.00,,,0.08,Rainwise IP-100,2013-08-14 01:42:00,
2013-08-13 21:47:00,62.0,61.0,29.82,SE,135,4.0,6.0,98,0.00,,,0.08,Rainwise IP-100,2013-08-14 01:47:00,
2013-08-13 21:52:00,62.0,61.0,29.82,NE,45,1.0,6.0,98,0.00,,,0.08,Rainwise IP-100,2013-08-14 01:52:00,
2013-08-13 21:57:00,62.0,61.0,29.82,SE,135,4.0,5.0,98,0.00,,,0.08,Rainwise IP-100,2013-08-14 01:57:00,
2013-08-13 22:02:00,63.0,62.0,29.82,SSE,157,7.0,10.0,96,0.00,,,0.08,Rainwise IP-100,2013-08-14 02:02:00,
2013-08-13 22:07:00,63.0,61.0,29.81,South,180,6.0,9.0,94,0.00,,,0.08,Rainwise IP-100,2013-08-14 02:07:00,
2013-08-13 22:12:00,63.0,61.0,29.81,SSW,202,3.0,7.0,95,0.00,,,0.08,Rainwise IP-100,2013-08-14 02:12:00,
2013-08-13 22:17:00,63.0,61.0,29.82,SSW,202,5.0,9.0,93,0.00,,,0.08,Rainwise IP-100,2013-08-14 02:17:00,
2013-08-13 22:22:00,64.0,61.0,29.82,WSW,247,1.0,12.0,92,0.00,,,0.08,Rainwise IP-100,2013-08-14 02:22:00,
2013-08-13 22:27:00,64.0,61.0,29.81,SSE,157,4.0,11.0,91,0.00,,,0.08,Rainwise IP-100,2013-08-14 02:27:00,
2013-08-13 22:32:00,64.0,61.0,29.81,South,180,5.0,9.0,92,0.00,,,0.08,Rainwise IP-100,2013-08-14 02:32:00,
2013-08-13 22:37:00,64.0,62.0,29.82,SSE,157,0.0,9.0,93,0.00,,,0.08,Rainwise IP-100,2013-08-14 02:37:00,
2013-08-13 22:42:00,63.0,61.0,29.82,SSE,157,2.0,5.0,94,0.00,,,0.08,Rainwise IP-100,2013-08-14 02:42:00,
2013-08-13 22:47:00,63.0,61.0,29.83,SE,135,3.0,7.0,94,0.00,,,0.08,Rainwise IP-100,2013-08-14 02:47:00,
2013-08-13 22:52:00,63.0,61.0,29.83,South,180,6.0,7.0,95,0.00,,,0.08,Rainwise IP-100,2013-08-14 02:52:00,
2013-08-13 22:57:00,63.0,61.0,29.82,SSE,157,2.0,6.0,94,0.00,,,0.08,Rainwise IP-100,2013-08-14 02:57:00,
2013-08-13 23:02:00,63.0,61.0,29.82,SE,135,0.0,6.0,95,0.00,,,0.08,Rainwise IP-100,2013-08-14 03:02:00,
2013-08-13 23:07:00,63.0,61.0,29.82,East,90,0.0,4.0,95,0.00,,,0.08,Rainwise IP-100,2013-08-14 03:07:00,
2013-08-13 23:12:00,62.0,61.0,29.82,North,360,6.0,7.0,97,0.00,,,0.08,Rainwise IP-100,2013-08-14 03:12:00,
2013-08-13 23:17:00,61.0,60.0,29.82,ENE,67,0.0,6.0,98,0.00,,,0.08,Rainwise IP-100,2013-08-14 03:17:00,
2013-08-13 23:22:00,61.0,60.0,29.82,SE,135,2.0,5.0,98,0.00,,,0.08,Rainwise IP-100,2013-08-14 03:22:00,
2013-08-13 23:27:00,61.0,60.0,29.83,SW,225,4.0,5.0,98,0.00,,,0.08,Rainwise IP-100,2013-08-14 03:27:00,
2013-08-13 23:32:00,61.0,60.0,29.83,SW,225,0.0,4.0,98,0.00,,,0.08,Rainwise IP-100,2013-08-14 03:32:00,
2013-08-13 23:37:00,61.0,60.0,29.83,WNW,292,6.0,6.0,98,0.00,,,0.08,Rainwise IP-100,2013-08-14 03:37:00,
2013-08-13 23:42:00,61.0,60.0,29.83,WSW,247,2.0,6.0,98,0.00,,,0.08,Rainwise IP-100,2013-08-14 03:42:00,
2013-08-13 23:47:00,61.0,60.0,29.82,South,180,3.0,4.0,98,0.00,,,0.08,Rainwise IP-100,2013-08-14 03:47:00,
2013-08-13 23:52:00,61.0,60.0,29.82,SSE,157,6.0,6.0,98,0.00,,,0.08,Rainwise IP-100,2013-08-14 03:52:00,
2013-08-13 23:57:00,61.0,60.0,29.82,SW,225,5.0,7.0,98,0.00,,,0.08,Rainwise IP-100,2013-08-14 03:57:00,